Home > Weather > Alert > Past weeks

Flag for Canada Past Weather in Alert, Nunavut, Canada — Yesterday and Last 2 Weeks

Now
34 °F

Chilly.


Feels Like: 20 °F
Forecast: 27 / 37 °F
Wind: 35 mph from West

Location: Kap Morris Jesup

Current Time: Aug 24, 2016 at 9:17:57 PM

Latest Report: Aug 24, 2016 at 8:00 PM


Visibility: N/A

Pressure: 29.91 "Hg

Humidity: 76%

Dew Point: 27 °F

Location of AlertLocation

Past Weather in Alert — Graph

°F

Alert Temperature Yesterday

Maximum temperature yesterday: 35 °F (at 5:00 AM)
Minimum temperature yesterday: 29 °F (at 5:00 PM)
Average temperature yesterday: 31 °F

High & Low Weather Summary for the Past Weeks

 TemperatureHumidityPressure
High47 °F (Aug 20, 2:00 PM)100% (Aug 19, 4:00 AM)30.04 "Hg (Aug 19, 4:00 AM)
Low29 °F (Aug 22, 6:00 PM)44% (Aug 20, 2:00 PM)29.41 "Hg (Aug 17, 1:00 AM)
Average34 °F84%29.66 "Hg
* Reported Aug 9 7:00 PM — Aug 24 7:00 PM, Alert, Weather by CustomWeather, © 2016

Note: Actual official high and low records may vary slightly from our data, if they occured in-between our weather recording intervals... More about our weather records

Advertising

Alert Weather History for the Previous 24 Hours

Scroll right to see more
 ConditionsComfort  
Time TempWeatherWind HumidityBarometerVisibility
7:00 PM
Wed, Aug 24
34 °FChilly.35 mph75%29.91 "HgN/A
6:00 PM34 °FChilly.36 mph73%29.90 "HgN/A
5:00 PM33 °FChilly.30 mph81%29.90 "HgN/A
4:00 PM33 °FChilly.33 mph78%29.89 "HgN/A
3:00 PM33 °FChilly.31 mph76%29.88 "HgN/A
2:00 PM32 °FChilly.24 mph82%29.89 "HgN/A
1:00 PM32 °FChilly.30 mph78%29.87 "HgN/A
12:00 PM32 °FChilly.25 mph84%29.86 "HgN/A
11:00 AM31 °FChilly.17 mph92%29.84 "HgN/A
10:00 AM31 °FChilly.24 mph87%29.83 "HgN/A
9:00 AM34 °FChilly.17 mph71%29.81 "HgN/A
8:00 AM34 °FChilly.20 mph79%29.80 "HgN/A
7:00 AM34 °FChilly.22 mph83%29.78 "HgN/A
6:00 AM34 °FChilly.26 mph85%29.75 "HgN/A
5:00 AM34 °FChilly.21 mph90%29.73 "HgN/A
4:00 AM36 °FChilly.20 mph75%29.72 "HgN/A
3:00 AM38 °FChilly.17 mph63%29.72 "HgN/A
2:00 AM41 °FQuite cool.10 mph46%29.73 "HgN/A
1:00 AM36 °FChilly.5 mph63%29.74 "HgN/A
12:00 AM33 °FChilly.5 mph74%29.76 "HgN/A
11:00 PM
Tue, Aug 23
32 °FChilly.6 mph74%29.78 "HgN/A
10:00 PM32 °FChilly.8 mph78%29.79 "HgN/A
9:00 PM31 °FChilly.5 mph80%29.82 "HgN/A
Weather by CustomWeather, © 2016

See weather overviewHow to use our weather pages